Regional Weather Roundup
Issued by NWS

Home | Current Version | Previous Version | Text Only | Print | Product List | Glossary Off
Versions: 1 2 3 4 5 6 7 8 9 10 11 12 13 14 15 16 17 18 19 20 21 22 23 24 25 26 27 28 29 30 31 32 33 34 35 36 37 38 39 40 41 42 43 44 45 46 47 48 49 50

000
ASUS43 KMPX 251301
RWRMN
WEATHER ROUNDUP FOR MINNESOTA
NATIONAL WEATHER SERVICE TWIN CITIES/CHANHASSEN MN
800 AM CDT THU MAY 25 2017


NOTE: "FAIR" INDICATES FEW OR NO CLOUDS BELOW 12,000 FEET WITH NO
SIGNIFICANT WEATHER AND/OR OBSTRUCTIONS TO VISIBILITY. N/A MEANS
CURRENT SKY AND/OR WEATHER CONDITIONS ARE NOT AVAILABLE.

MNZ060>063-068>070-251400-
   Twin Cities Metro

CITY           SKY/WX    TMP DP  RH WIND       PRES   REMARKS
TWIN CITIES    MOSUNNY   55  49  80 SE8       29.72S
ST PAUL        SUNNY     55  51  86 SE6       29.73R
CRYSTAL        SUNNY     55  48  77 SE8       29.70F
LAKEVILLE      PTSUNNY   52  52 100 SE9       29.72S
EDEN PRAIRIE   SUNNY     55  50  83 SE9       29.70F
SOUTH ST PAUL  SUNNY     54  50  86 SE6       29.72S
LAKE ELMO      FAIR      54  50  87 SE5       29.74R
$$
MNZ001>005-007-008-013>017-022>024-027-028-251400-
   Northwest Minnesota

CITY           SKY/WX    TMP DP  RH WIND       PRES   REMARKS
BEMIDJI        MOSUNNY   49  45  85 SE12      29.66F
HALLOCK        PTSUNNY   55  45  67 SE21G26   29.54F
ROSEAU         CLOUDY    54  46  76 SE12G17   29.61F
WARROAD        PTSUNNY   54  46  76 SE15      29.64F
CROOKSTON      PTSUNNY   54  45  71 S17       29.57R
FOSSTON        CLOUDY    52  45  76 SE9G18    29.60F
DETROIT LAKES  CLOUDY    50  45  81 SE21G26   29.58F
MOORHEAD       CLOUDY    54  45  71 SE17G24   29.56R
PARK RAPIDS    CLOUDY    52  44  74 SE13      29.64F
MAHNOMEN       FAIR      50  45  82 SE14      29.58F
$$
MNZ006-009>011-018-025>026-251400-
   North Central Minnesota

CITY           SKY/WX    TMP DP  RH WIND       PRES   REMARKS
BAUDETTE       CLOUDY    49  42  77 SE14      29.68F
FLAG ISLAND    CLOUDY    52  43  71 SE12      29.66S
INTL FALLS     SUNNY     50  42  74 SE8       29.73S
WASKISH        MOSUNNY   52  45  76 SE9       29.68F
BIG FORK       SUNNY     52  45  76 SE5       29.72S
LONGVILLE      SUNNY     50  46  87 SE9       29.70R
GRAND RAPIDS   SUNNY     48  43  82 SE7       29.74S
CRANE LAKE     SUNNY     46  43  87 SE3       29.77F
ORR            SUNNY     50  41  71 SE7       29.72F
COOK           SUNNY     50  43  76 E3        29.75F
WALKER         FAIR      50  45  83 E6        29.68S
$$
MNZ012-019>021-037-251400-
   Northeast Minnesota

CITY           SKY/WX    TMP DP  RH WIND       PRES   REMARKS
DULUTH         PTSUNNY   46  43  89 E6        29.75S
ELY            SUNNY     50  43  76 SE6       29.76F
HIBBING        SUNNY     49  45  86 SE8       29.74S
EVELETH        SUNNY     50  43  75 E6        29.76S
DULUTH HARBOR  CLOUDY    45  41  87 NE9       29.78F
TWO HARBORS    PTSUNNY   54  46  76 E8        29.74F
SILVER BAY     SUNNY     52  46  82 E6        29.75S
GRAND MARAIS     N/A     43  41  93 CALM      29.78R
G MARAIS ARPRT CLOUDY    48  37  66 E8        29.79S
$$
MNZ029>031-032-039>041-046>048-054>057-064-251400-
   West Central Minnesota

CITY           SKY/WX    TMP DP  RH WIND       PRES   REMARKS
FERGUS FALLS   CLOUDY    54  45  71 S15       29.58S
WHEATON        MOSUNNY   52  46  82 SE18      29.58F
MORRIS         CLOUDY    52  46  82 SE17G25   29.60S
ALEXANDRIA     PTSUNNY   52  46  80 SE15      29.64F
ELBOW LAKE     FAIR      53  46  79 SE16      29.60S
WADENA         CLOUDY    48  46  93 SE10      29.64F
GLENWOOD       PTSUNNY   54  48  82 SE15G22   29.64F
APPLETON       PTSUNNY   54  46  76 SE12      29.60S
BENSON         PTSUNNY   54  46  76 S13G21    29.62F
ORTONVILLE     CLOUDY    50  46  87 SE13G18   29.58R
MADISON        PTSUNNY   54  52  94 SE17      29.60R
WILLMAR        FAIR      55  48  76 SE12      29.67F
$$
MNZ033>034-036-042>043-049>051-058-059-251400-
   Central Minnesota

CITY           SKY/WX    TMP DP  RH WIND       PRES   REMARKS
ST CLOUD       SUNNY     52  50  93 SE9       29.71S
SAUK CENTRE    FAIR      51  46  84 SE9       29.67F
PAYNESVILLE    MOSUNNY   53  51  92 SE9       29.68F
AITKIN         PTSUNNY   48  45  87 E7        29.70F
PINE RIVER     MOSUNNY   54  46  76 SE8       29.73R
BRAINERD       SUNNY     54  47  77 SE8       29.70S
STAPLES        PTSUNNY   50  46  87 SE6       29.67F
LONG PRAIRIE   FAIR      50  45  81 E9        29.67F
LITTLE FALLS   SUNNY     52  46  82 SE9       29.69F
LITCHFIELD     SUNNY     55  52  88 SE8       29.69S
BUFFALO        SUNNY     54  49  83 SE6       29.72S
MAPLE LAKE     SUNNY     55  52  92 SE6       29.72S
HUTCHINSON     PTSUNNY   54  50  89 SE6       29.70F
$$
MNZ037-044-045-052-053-251400-
   East Central Minnesota

CITY           SKY/WX    TMP DP  RH WIND       PRES   REMARKS
PRINCETON      SUNNY     55  50  82 E7        29.71F
MORA           MOSUNNY   50  45  81 CALM      29.75R
CAMBRIDGE      MOSUNNY   57  46  67 SE6       29.71S
RUSH CITY      MOSUNNY   50  47  88 CALM      29.73S
MOOSE LAKE     PTSUNNY   45  41  87 NE3       29.73S
HINCKLEY       CLOUDY    52  46  82 CALM      29.73F
CLOQUET        CLOUDY    45  43  93 E5        29.75S
MCGREGOR       PTSUNNY   48  45  87 E6        29.74S
$$
MNZ071>073-080-081-089-090-097-098-251400-
   Southwest Minnesota

CITY           SKY/WX    TMP DP  RH WIND       PRES   REMARKS
MONTEVIDEO     MOSUNNY   54  48  82 S14G24    29.60F
CANBY          CLOUDY    54  49  85 SE14G21   29.59F
MARSHALL       MOSUNNY   54  49  83 SE16      29.63F
REDWOOD FALLS  SUNNY     54  48  80 SE10      29.67R
OLIVIA         SUNNY     54  46  76 SE12      29.67S
PIPESTONE      CLOUDY    52  45  76 S9        29.63R
WINDOM         SUNNY     54  46  76 S9        29.69R
WORTHINGTON    SUNNY     53  48  83 S12       29.68R
JACKSON        SUNNY     52  46  82 S8        29.68R
TRACY          CLOUDY    53  50  87 S10       29.66S
SLAYTON        SUNNY     49  47  90 SE8       29.67R
$$
MNZ065>067-074>077-082>085-091>093-251400-
   South Central Minnesota

CITY           SKY/WX    TMP DP  RH WIND       PRES   REMARKS
MANKATO          N/A     54  49  83 SE10      29.71R
NEW ULM        SUNNY     52  48  87 S7        29.69R
ST JAMES       SUNNY     54  50  87 E9        29.69S
FAIRMONT       SUNNY     53  49  86 SE8       29.69S
GLENCOE        SUNNY     54  51  92 SE6       29.70S
FARIBAULT      SUNNY     54  52  94 E8        29.72S
OWATONNA       SUNNY     54  50  87 SE8       29.72S
WASECA         SUNNY     52  48  87 SE9       29.72S
ALBERT LEA     SUNNY     54  52  94 SE7       29.71S
$$
MNZ078>079-086>088-094>096-251400-
   Southeast Minnesota

CITY           SKY/WX    TMP DP  RH WIND       PRES   REMARKS
ROCHESTER      SUNNY     52  50  93 CALM      29.74R
RED WING       SUNNY     55  50  82 CALM      29.72S
STANTON        SUNNY     54  50  86 S5        29.72S
DODGE CENTER   SUNNY     52  48  87 SE5       29.73R
WINONA         FOG       50  48  93 CALM      29.73R VSB<1/4
AUSTIN         MOSUNNY   52  50  93 CALM      29.72R
PRESTON        SUNNY     52  47  83 CALM      29.72F
$$
ABBREVIATIONS USED IN REMARKS
   TC - TEMPERATURES IN CELSIUS
  WCI - WIND CHILL INDEX
   HX - HEAT INDEX
  VSB - VISIBILITY
$$




USA.gov is the U.S. government's official web portal to all federal, state and local government web resources and services.